Flag for U.S.A. Weather past 2 weeks in Portland, Oregon, U.S.A.

Now
65 °F

Sunny.


Feels Like: 65 °F
Forecast: 59 / 83 °F
Wind: 5 mph from North

Location: Portland International Airport

Current Time: May 29, 2015 at 10:36:39 AM

Latest Report: May 29, 2015 at 9:53 AM


Visibility: 10 mi

Pressure: 29.99 "Hg

Humidity: 70%

Dew point: 55 °F

Location of PortlandLocation

Historic Weather in Portland — Graph

°F

Portland temperature yesterday

Maximum temperature yesterday: 84 °F (at 4:53 PM)
Minimum temperature yesterday: 54 °F (at 5:53 AM)
Average temperature yesterday: 69 °F

Past Weeks' High & Low Weather Summary

 TemperatureHumidityPressure
High84 °F (May 28, 4:53 PM)100% (May 19, 6:53 AM)30.19 "Hg (May 19, 6:53 AM)
Low52 °F (May 14, 8:53 AM)31% (May 28, 4:53 PM)29.78 "Hg (May 14, 6:53 PM)
Average61 °F72%30.01 "Hg
* Reported May 14 8:53 AM — May 29 8:53 AM, Portland, Weather by CustomWeather, © 2015

Note: Actual official high and low records may vary slightly from our data, if they occured in-between our weather recording intervals... More about our weather records

Advertising

Portland weather history for previous 24 hours

 ConditionsComfort  
Time TempWeatherWind HumidityBarometerVisibility
8:53 AM
Fri, May 29
61 °FPartly sunny.8 mph78%29.99 "Hg10 mi
7:53 AM60 °FPartly sunny.7 mph78%29.99 "Hg10 mi
6:53 AM58 °FScattered clouds.3 mph84%29.99 "Hg10 mi
5:53 AM56 °FPassing clouds.5 mph90%29.99 "Hg10 mi
4:53 AM58 °FPassing clouds.7 mph84%29.98 "Hg10 mi
3:53 AM60 °FPassing clouds.5 mph80%29.98 "Hg10 mi
2:53 AM61 °FPassing clouds.3 mph78%29.98 "Hg10 mi
1:53 AM62 °FPassing clouds.3 mph78%29.99 "Hg10 mi
12:53 AM64 °FPassing clouds.No wind73%29.98 "Hg10 mi
11:53 PM
Thu, May 28
66 °FPassing clouds.5 mph70%29.97 "Hg10 mi
10:53 PM68 °FPassing clouds.5 mph68%29.97 "Hg10 mi
9:53 PM71 °FPassing clouds.6 mph63%29.97 "Hg10 mi
8:53 PM74 °FScattered clouds.5 mph57%29.95 "Hg10 mi
7:53 PM79 °FScattered clouds.7 mph42%29.94 "Hg10 mi
6:53 PM83 °FScattered clouds.9 mph33%29.93 "Hg10 mi
5:53 PM84 °FScattered clouds.9 mph36%29.94 "Hg10 mi
4:53 PM84 °FPartly sunny.9 mph31%29.96 "Hg10 mi
3:53 PM83 °FScattered clouds.6 mph32%29.96 "Hg10 mi
2:53 PM81 °FScattered clouds.9 mph38%29.98 "Hg10 mi
1:53 PM78 °FPassing clouds.9 mph46%30.00 "Hg10 mi
12:53 PM74 °FPassing clouds.7 mph56%30.02 "Hg10 mi
11:53 AM72 °FPassing clouds.3 mph57%30.04 "Hg10 mi
10:53 AM67 °FPassing clouds.3 mph66%30.06 "Hg10 mi
Weather by CustomWeather, © 2015

See weather overviewHow to use our weather pages